Regional Weather Roundup
Issued by NWS Charleston, SC

Current Version | Previous Version | Text Only | Print | Product List | Glossary Off
Versions: 1 2 3 4 5 6 7 8 9 10 11 12 13 14 15 16 17 18 19 20 21 22 23 24 25 26 27 28 29 30 31 32 33 34 35 36 37 38 39 40 41 42 43 44 45 46 47 48 49 50

000
ASUS42 KCHS 221912
RWRCHS

REGIONAL WEATHER ROUNDUP
NATIONAL WEATHER SERVICE CHARLESTON SC
300 PM EDT FRI MAY 22 2015

NOTE: "FAIR" INDICATES FEW OR NO CLOUDS BELOW 12,000 FEET WITH NO
SIGNIFICANT WEATHER AND/OR OBSTRUCTIONS TO VISIBILITY.

NOT ALL STATIONS ARE QUALITY CONTROLLED BY THE NATIONAL
WEATHER SERVICE. USE DATA WITH CAUTION...ESPECIALLY
DEWPOINT OBSERVATIONS.

SCZ027-030-031-034>040-042>050-222000-
...SOUTHEAST SOUTH CAROLINA...

CITY           SKY/WX    TMP DP  RH WIND       PRES   REMARKS
N CHARLESTON   PTSUNNY   78  54  43 NE9       30.17F
WATERFRONT PAR   N/A     74  62  66 E10       30.14F
MOUNT PLEASANT FAIR      73  61  64 SE7       30.17S
JOHNS ISLAND   CLOUDY    73  61  64 E14       30.18S
PINOPOLIS        N/A     75  52  43 NW5       30.11F
MONCKS CORNER  FAIR      75  52  43 NW6       30.18S
SUMMERVILLE    FAIR      77  54  44 CALM      30.19S
BEAUFORT MCAS  PTSUNNY   79  55  43 N6        30.17S
BEAUFORT ARPT  FAIR      75  59  57 E7        30.17S
HILTON HEAD IS MOSUNNY   73  61  64 NE8       30.18R
WALTERBORO     PTCLDY    77  50  38 NW3       30.19R
ALLENDALE      FAIR      75  54  46 N6G12     30.17S

...SOUTHERN MIDLANDS AND PEE DEE...

CITY           SKY/WX    TMP DP  RH WIND       PRES   REMARKS
GEORGETOWN     NOT AVBL
KINGSTREE      NOT AVBL
ORANGEBURG     SUNNY     76  48  37 NE5       30.18F
BARNWELL       FAIR      77  52  41 E7        30.19S
AIKEN          FAIR      75  43  31 E5        30.23S
MANNING        FAIR      73  45  35 CALM      30.18S
COLUMBIA       MOSUNNY   77  46  33 CALM      30.18F
SUMTER         SUNNY     77  47  34 VRB5      30.16F
FLORENCE       SUNNY     76  49  38 NW9       30.18F
MYRTLE BEACH   MOSUNNY   72  55  56 SE12      30.19F
N MYRTLE BEACH MOSUNNY   72  57  59 SE8       30.18S

$$

GAZ063-065-086>088-099>101-113>116-118-119-134>141-150-222000-
...SOUTHEAST GEORGIA...

CITY           SKY/WX    TMP DP  RH WIND       PRES   REMARKS
SAVANNAH ARPT  PTSUNNY   77  57  50 NE6       30.16S
HUNTER AAF     PTSUNNY   77  60  56 E8G18     30.13F
FORT STEWART   MOSUNNY   82  62  50 E9        30.12S
STATESBORO     MOSUNNY   80  62  55 CALM      30.16S
SYLVANIA       PTCLDY    78  60  53 N5        30.18S
CLAXTON        FAIR      81  61  50 CALM      30.15S

...CSRA...CENTRAL AND FAR SOUTHEAST GEORGIA...

CITY           SKY/WX    TMP DP  RH WIND       PRES   REMARKS
THOMSON        MOSUNNY   77  56  47 NE8       30.23F
AUGUSTA-BUSH   MOSUNNY   78  50  37 E8G17     30.17F
AUGUSTA-DANIEL MOSUNNY   79  49  34 N9G16     30.19S
SWAINSBORO     FAIR      82  59  44 N3        30.17S
VIDALIA        PTSUNNY   79  55  44 NE6       30.15S
EASTMAN        FAIR      83  55  39 NE3       30.18S
HAZLEHURST     FAIR      82  54  38 NE6       30.15S
ALMA           SUNNY     81  52  36 VRB3      30.15F
WAYCROSS       SUNNY     80  54  41 CALM      30.14F
JESUP          FAIR      88  59  37 SW3       30.13F
BAXLEY         FAIR      82  54  36 SW3       30.14S
BRUNSWICK      PTSUNNY   79  63  57 E15       30.16S
SAINT SIMONS   NOT AVBL

$$

SCZ027-028-034-036>038-045-046-048>050-GAZ119-141-222000-
...LAKE AND SUPPLEMENTAL COASTAL OBSERVATIONS...

STATION/POSITION TIME  TEMP    WIND        PRES    WAVE   SWELL
                       AIR SEA DIR/SP/G            HT/PER HT/PER/DIR
                 (UTC) (F)     (DEG/KT/KT) (MB)    (FT/S) (FT/S/D)
UPR LAKE MARION  NOT AVBL
WINYAH BAY       1745   68      80/ 10     1021.0
LAKE MURRAY      1800   75     170/  2/  3 1022.0F
ACE BASIN NERRS  NOT AVBL
FORT PULASKI     1800   72 78   70/ 15/ 17 1022.0R
SAPELO ISLAND    1800   76      60/ 11     1021.0S

$$

ANZ835-935-AMZ111-154-330-350-352-354-370-450-454-472-222000-
...C-MAN AND BUOY OBSERVATIONS...

STATION/POSITION TIME  TEMP    WIND        PRES    WAVE   SWELL
                       AIR SEA DIR/SP/G            HT/PER HT/PER/DIR
                 (UTC) (F)     (DEG/KT/KT) (MB)    (FT/S) (FT/S/D)
BUOY 41004       1850   70 76   30/ 17/ 21 1020.8R   6/ 6   2/11
BUOY 41008       1850   72 77   50/ 17/ 19 1021.1R   5/ 7
FOLLY BEACH CMAN 1900   72      70/ 12/ 15 1021.9S
CAPERS NEARSHORE 1808   69      70/ 16/ 19 1021.9R
FRIPP NEARSHORE  1800   72      70/ 14/ 17 1021.1R


STATION/POSITION TIME  TEMP    WIND        PRES    WAVE   SWELL
                       AIR SEA DIR/SP/G            HT/PER HT/PER/DIR
                 (UTC) (F)     (DEG/KT/KT) (MB)    (FT/S) (FT/S/D)
5E ST. MARYS GA  1821      78                N/A     2/ 4
FRYING PAN BUOY  1850   68 74   40/ 14/ 17 1022.2R   4/ 5   2/ 90/ 8
BUOY 41025       1850   63 77   10/ 14/ 17 1021.6R   4/ 8   3/ 40/ 8
CAPE LOOKOUT NC  1900   67      60/ 11/ 13 1021.4S
BUOY 41002       1850   73 75   60/ 17/ 19 1019.2R   4/ 6   2/160/ 8
BUOY 41010       1820   81 83  310/  4/  6 1019.2R
ST AUGUSTINE FL  1900   74 76   20/ 14/ 15 1021.0F


$$


USA.gov is the U.S. government's official web portal to all federal, state and local government web resources and services.